Content
SEND FEEDBACK

Daily
Averages
Monthly
Summary
Spain

TORREJÓN DE ARDOZ, SPAIN


Home > Europe > Spain
Elevation: 1995 feet     Latitude: 40 28N     Longitude: 003 27W

WEATHER
 
SELECT A DAY
Number of Records: 306,803;   Date Range: 7/1/96 - 12/25/14
 
SHARE

PRINT THIS DATA

[ ← Previous Day ]
WEATHER ALMANAC - MARCH 3, 2013
[ Next Day → ]
[ °C ]   °F
Weather ElementAverageHighLow
Temperature47.3 °F57.2 °F (4:00 pm)37.4 °F (7:00 am)
Dewpoint35.3 °F39.2 °F (2:30 pm)32 °F (1:00 am)
Humidity63.8 %87 % (7:00 am)38 % (1:00 pm)
Barometer29.94 in30.06 in (1:00 am)29.85 in (7:00 pm)
Wind Speed5.5 mph12.7 mph (9:30 pm)
Wind Gust17.3 mph (12:30 pm)
Weather ElementAverage
Visibility7.7 mi
Wind DirectionSSE (159.8 °)

Weather ElementTotal
Precipitation---
Heating Degree Days17.7 (Base 65)
Averaged from 50 records on March 3, 2013
WEATHER CONDITIONS BREAKOUT
WIND DIRECTION BREAKOUT
WEATHER BY HOUR - MARCH 3, 2013
[ °C ]   °F
Local TimeTemperatureDewpointHumidityBarometerVisibilityWind DirectionWind SpeedGust SpeedPrecipitationEventsConditions
12:30 AM41.0 °F33.8 °F76 %30.01 in6.2 miNorth (360°)4.6 mphPartly Cloudy
1:00 AM41.0 °F32.0 °F62 %30.06 in18.0 miNNW (330°)2.3 mphScattered Clouds
1:00 AM41.0 °F33.8 °F76 %30.01 in6.2 miVariable2.3 mphPartly Cloudy
1:30 AM41.0 °F33.8 °F76 %30.01 in6.2 miVariable2.3 mphScattered Clouds
2:00 AM44.6 °F32.0 °F61 %30.01 in6.2 miESE (120°)3.5 mphScattered Clouds
2:30 AM44.6 °F32.0 °F61 %30.01 in6.2 miESE (120°)5.8 mphPartly Cloudy
3:00 AM44.6 °F33.8 °F66 %30.01 in6.2 miEast (100°)4.6 mphPartly Cloudy
3:30 AM42.8 °F33.8 °F70 %30.01 inNorth (360°)3.5 mphClear
4:00 AM41.0 °F33.8 °F76 %29.98 inNNE (20°)4.6 mphClear
4:30 AM39.2 °F33.8 °F81 %29.98 inNorth (360°)5.8 mphClear
5:00 AM39.2 °F33.8 °F81 %29.98 inNorth (350°)3.5 mphClear
5:30 AM39.2 °F33.8 °F81 %29.98 inNorth (350°)3.5 mphClear
6:00 AM39.2 °F33.8 °F81 %29.98 inNNW (340°)3.5 mphClear
6:30 AM39.2 °F33.8 °F81 %29.98 inNNW (330°)3.5 mphClear
7:00 AM38.0 °F32.0 °F71 %30.04 in19.0 miNNW (330°)3.5 mphOvercast
7:00 AM37.4 °F33.8 °F87 %29.98 inNNW (330°)3.5 mphClear
7:30 AM37.4 °F33.8 °F87 %29.98 inVariable1.2 mphClear
8:00 AM37.4 °F33.8 °F87 %29.98 inVariable1.2 mphClear
8:30 AM39.2 °F33.8 °F81 %29.98 inNW (310°)1.2 mphClear
9:00 AM41.0 °F35.6 °F81 %29.98 inVariable2.3 mphClear
9:30 AM41.0 °F35.6 °F81 %29.98 inVariable1.2 mphClear
10:00 AM44.6 °F35.6 °F71 %29.98 inVariable2.3 mphClear
10:30 AM48.2 °F32.0 °F54 %29.98 inEast (90°)4.6 mphClear
11:00 AM48.2 °F32.0 °F54 %29.98 inEast (90°)3.5 mphClear
11:30 AM50.0 °F33.8 °F54 %29.98 inESE (120°)5.8 mphClear
12:00 PM51.8 °F35.6 °F54 %29.95 in6.2 miSE (130°)5.8 mphPartly Cloudy
12:30 PM51.8 °F35.6 °F54 %29.95 in6.2 miSSE (150°)5.8 mph17.3 mphPartly Cloudy
1:00 PM53.0 °F35.0 °F38 %29.94 in19.0 miSE (130°)2.3 mphScattered Clouds
1:00 PM51.8 °F35.6 °F54 %29.95 in6.2 miESE (120°)2.3 mphScattered Clouds
1:30 PM51.8 °F35.6 °F54 %29.92 in6.2 miSE (130°)4.6 mphPartly Cloudy
2:00 PM53.6 °F37.4 °F54 %29.92 in6.2 miSouth (170°)4.6 mphPartly Cloudy
2:30 PM55.4 °F39.2 °F54 %29.89 in6.2 miESE (110°)4.6 mphPartly Cloudy
3:00 PM55.4 °F33.8 °F44 %29.89 in6.2 miSE (130°)6.9 mphPartly Cloudy
3:30 PM55.4 °F33.8 °F44 %29.89 in6.2 miSE (130°)6.9 mphPartly Cloudy
4:00 PM57.2 °F35.6 °F44 %29.86 in6.2 miSSE (150°)5.8 mphPartly Cloudy
4:30 PM55.4 °F37.4 °F51 %29.86 in6.2 miSouth (170°)8.1 mphPartly Cloudy
5:00 PM57.2 °F37.4 °F48 %29.86 in6.2 miSouth (170°)9.2 mphScattered Clouds
5:30 PM57.2 °F35.6 °F44 %29.86 in6.2 miSSE (160°)9.2 mphScattered Clouds
6:00 PM55.4 °F37.4 °F51 %29.86 in6.2 miSE (140°)10.4 mphPartly Cloudy
7:00 PM54.0 °F36.0 °F38 %29.85 in19.0 miSSE (150°)10.4 mphScattered Clouds
7:00 PM53.6 °F37.4 °F54 %29.86 in6.2 miSE (140°)9.2 mphPartly Cloudy
7:30 PM53.6 °F37.4 °F54 %29.86 in6.2 miSSE (150°)9.2 mphScattered Clouds
8:00 PM51.8 °F37.4 °F58 %29.86 in6.2 miSE (140°)5.8 mphScattered Clouds
8:30 PM51.8 °F37.4 °F58 %29.86 in6.2 miSE (140°)6.9 mphScattered Clouds
9:00 PM51.8 °F39.2 °F62 %29.86 in6.2 miSE (140°)11.5 mphScattered Clouds
9:30 PM50.0 °F39.2 °F66 %29.86 in6.2 miSE (140°)12.7 mphScattered Clouds
10:00 PM50.0 °F39.2 °F66 %29.86 in6.2 miSE (140°)10.4 mphMostly Cloudy
10:30 PM50.0 °F39.2 °F66 %29.86 in6.2 miSSE (150°)10.4 mphScattered Clouds
11:00 PM48.2 °F39.2 °F71 %29.86 in6.2 miSSE (150°)8.1 mphScattered Clouds
11:30 PM48.2 °F39.2 °F71 %29.86 in6.2 miSSE (150°)8.1 mphScattered Clouds
Hourly data recorded from LETO, located miles away from Torrejón de Ardoz, Spain







STORIES FROM OUR PARTNERS